Location: *
(38.4303°S, 157.0822°W)
Time: 15:20:45
(UTC+00:00)

USA 238 - Pass Details

Date: 21 May 2024
Orbit: 912 x 1299 km, 63.4° (Epoch: 29 April)

Event Time Altitude Azimuth Distance (km) Brightness Sun altitude
Exits shadow 14:37:15 38° 162° (SSE) 1,491 4.5 -33.3°
Maximum altitude 14:38:37 42° 132° (SE) 1,373 4.5 -33.0°
Drops below altitude 10° 14:44:26 10° 61° (ENE) 2,650 6.5 -31.9°
Sets 14:47:02 0° 54° (NE) 3,563 7.2 -31.4°
